Location: Madrid
(40.4167°N, 3.7036°W)
Time: 11:38:41
(UTC+00:00)

ISS - Pass Details

Date: 05 May 2025
Orbit: 416 x 419 km, 51.6° (Epoch: 14 May)

Event Time Altitude Azimuth Distance (km) Brightness Sun altitude
Rises 04:58:23 0° 307° (NW) 2,360 -0.2 -2.7°
Reaches altitude 10° 05:00:29 10° 310° (NW) 1,495 -1.2 -2.3°
Maximum altitude 05:03:50 74° 35° (NE) 436 -3.5 -1.7°
Drops below altitude 10° 05:07:10 10° 122° (ESE) 1,488 -0.4 -1.2°
Sets 05:09:16 0° 124° (SE) 2,349 0.6 -0.8°
